Torna al catalogo

RESURS O1-N4

AttivoScienzaSSO
NORAD 25394·PAYLOAD·🇷🇺 Russia

Lanciato Jul 10, 1998 da Baikonur Cosmodrome

Loading…

Prossimi Passaggi (prossime 24 ore)

TLE

AggiornatoSource: Space-Track

Epoca: Sep 14, 2026, 09:06 UTC

1 25394U 98043A   26257.37959622  .00000082  00000-0  54680-4 0  9999
2 25394  98.9546 232.7076 0000760 185.5300 174.5870 14.25146758465031

Traccia RESURS O1-N4 in tempo reale con AllMySat

Download on the App Store